Content
SEND FEEDBACK

Daily
Averages
Monthly
Summary
United States of America

PACIFIC JUNCTION, IOWA


Home > North America > United States > Iowa
Elevation: 954 feet     Latitude: 41 00N     Longitude: 095 46W

WEATHER
 
SELECT A DAY
Number of Records: 191,869;   Date Range: 11/2/06 - 9/20/14
 
SHARE

PRINT THIS DATA

[ ← Previous Day ]
WEATHER ALMANAC - JANUARY 23, 2013
[ Next Day → ]
[ °C ]   °F
Weather ElementAverageHighLow
Temperature20.9 °F32 °F (2:35 pm)11.5 °F (11:55 pm)
Dewpoint11.6 °F18.1 °F (12:15 pm)2.7 °F (11:55 pm)
Humidity68 %84 % (12:35 am)53 % (2:55 pm)
Barometer30.27 in30.49 in (11:35 pm)30.14 in (6:15 am)
Wind Speed8.8 mph13.8 mph (1:55 pm)
Wind Gust21.9 mph (2:55 pm)
Weather ElementAverage
Visibility10 mi
Wind DirectionWSW (234.2 °)

Weather ElementTotal
Precipitation---
Heating Degree Days43.3 (Base 65)
Averaged from 71 records on January 23, 2013
WEATHER CONDITIONS BREAKOUT
WIND DIRECTION BREAKOUT
WEATHER BY HOUR - JANUARY 23, 2013
[ °C ]   °F
Local TimeTemperatureDewpointHumidityBarometerVisibilityWind DirectionWind SpeedGust SpeedPrecipitationEventsConditions
12:35 AM13.1 °F9.1 °F84 %30.23 in10.0 miSE (130°)6.9 mphClear
12:55 AM13.8 °F9.3 °F82 %30.22 in10.0 miSE (140°)5.8 mphClear
1:15 AM14.0 °F9.0 °F80 %30.22 in10.0 miSSE (150°)6.9 mphClear
1:35 AM14.7 °F9.0 °F78 %30.21 in10.0 miSSE (150°)8.1 mphClear
1:55 AM14.4 °F8.8 °F79 %30.21 in10.0 miSE (140°)5.8 mphClear
2:15 AM14.4 °F9.1 °F80 %30.21 in10.0 miSSE (150°)6.9 mphClear
2:35 AM14.5 °F9.0 °F79 %30.21 in10.0 miSSE (150°)8.1 mphClear
2:55 AM14.9 °F9.0 °F77 %30.20 in10.0 miSSE (160°)8.1 mphClear
3:15 AM15.1 °F8.8 °F76 %30.19 in10.0 miSSE (160°)9.2 mphClear
3:35 AM15.3 °F8.6 °F75 %30.19 in10.0 miSSE (150°)8.1 mphClear
3:55 AM14.9 °F8.8 °F77 %30.19 in10.0 miSSE (160°)8.1 mphClear
4:15 AM14.9 °F9.0 °F77 %30.18 in10.0 miSouth (170°)8.1 mphClear
4:35 AM15.4 °F9.1 °F76 %30.18 in10.0 miSSE (160°)8.1 mphClear
4:55 AM14.9 °F9.0 °F77 %30.17 in10.0 miSSE (160°)9.2 mphClear
5:15 AM14.7 °F9.0 °F78 %30.16 in10.0 miSouth (170°)10.4 mphClear
5:35 AM14.5 °F8.6 °F77 %30.15 in10.0 miSouth (170°)9.2 mphClear
5:55 AM14.9 °F8.8 °F77 %30.15 in10.0 miSouth (170°)8.1 mphClear
6:15 AM14.5 °F8.6 °F77 %30.14 in10.0 miSouth (180°)9.2 mphClear
6:35 AM15.1 °F8.8 °F76 %30.16 in10.0 miSSW (200°)4.6 mphClear
6:55 AM15.3 °F8.4 °F74 %30.18 in10.0 miCalmClear
7:15 AM14.5 °F8.2 °F76 %30.18 in10.0 miCalmClear
7:35 AM14.0 °F7.9 °F77 %30.18 in10.0 miCalmClear
7:55 AM12.7 °F7.5 °F80 %30.18 in10.0 miSW (220°)5.8 mphClear
8:15 AM14.0 °F8.6 °F79 %30.17 in10.0 miSW (220°)4.6 mphClear
8:35 AM16.7 °F10.4 °F76 %30.18 in10.0 miSW (230°)4.6 mphClear
8:55 AM19.9 °F12.9 °F74 %30.18 in10.0 miWSW (250°)5.8 mphClear
9:15 AM21.9 °F15.3 °F76 %30.20 in10.0 miWNW (290°)6.9 mphClear
9:35 AM22.6 °F15.6 °F74 %30.20 in10.0 miWNW (300°)8.1 mphClear
9:55 AM23.4 °F16.2 °F74 %30.22 in10.0 miNW (320°)8.1 mphClear
10:15 AM23.9 °F15.6 °F71 %30.23 in10.0 miNNW (340°)8.1 mphClear
10:35 AM23.9 °F15.1 °F69 %30.23 in10.0 miNNW (340°)6.9 mphClear
10:55 AM25.2 °F15.6 °F67 %30.23 in10.0 miNNW (340°)5.8 mphClear
11:15 AM26.4 °F16.0 °F65 %30.24 in10.0 miNNW (340°)8.1 mphClear
11:35 AM28.2 °F16.9 °F63 %30.23 in10.0 miNNW (340°)5.8 mphClear
11:55 AM29.1 °F17.2 °F61 %30.24 in10.0 miNorth (350°)5.8 mphClear
12:15 PM30.2 °F18.1 °F61 %30.24 in10.0 miNNW (330°)10.4 mphClear
12:35 PM30.9 °F18.0 °F59 %30.24 in10.0 miNNW (340°)9.2 mphClear
12:55 PM31.1 °F18.1 °F59 %30.24 in10.0 miNNW (330°)10.4 mphClear
1:15 PM31.3 °F17.8 °F57 %30.24 in10.0 miNNW (330°)12.7 mphClear
1:35 PM31.8 °F18.1 °F57 %30.24 in10.0 miNNW (330°)12.7 mph17.3 mphClear
1:55 PM31.8 °F18.0 °F57 %30.24 in10.0 miNW (320°)13.8 mphClear
2:15 PM31.6 °F17.2 °F55 %30.24 in10.0 miNNW (330°)13.8 mphClear
2:35 PM32.0 °F16.9 °F54 %30.25 in10.0 miNNW (330°)13.8 mph19.6 mphClear
2:55 PM31.6 °F16.2 °F53 %30.26 in10.0 miNorth (350°)13.8 mph21.9 mphClear
3:15 PM31.3 °F16.2 °F54 %30.26 in10.0 miNorth (350°)11.5 mph18.4 mphClear
3:35 PM30.4 °F15.8 °F55 %30.26 in10.0 miNorth (350°)11.5 mphClear
3:55 PM30.4 °F16.2 °F56 %30.28 in10.0 miNNW (340°)9.2 mph16.1 mphClear
4:15 PM30.0 °F16.5 °F57 %30.29 in10.0 miNNW (340°)11.5 mph17.3 mphClear
4:35 PM30.0 °F17.2 °F59 %30.30 in10.0 miNorth (360°)13.8 mphClear
4:55 PM29.3 °F16.0 °F58 %30.30 in10.0 miNorth (350°)11.5 mph16.1 mphClear
5:15 PM27.9 °F14.9 °F58 %30.31 in10.0 miNorth (350°)8.1 mph16.1 mphClear
5:35 PM26.6 °F14.7 °F61 %30.32 in10.0 miNorth (350°)6.9 mphClear
5:55 PM25.7 °F13.3 °F59 %30.33 in10.0 miNNW (340°)6.9 mphClear
6:15 PM25.2 °F12.6 °F59 %30.34 in10.0 miNorth (350°)10.4 mph16.1 mphClear
6:35 PM24.3 °F13.3 °F63 %30.35 in10.0 miNorth (350°)9.2 mphClear
6:55 PM23.5 °F13.8 °F66 %30.36 in10.0 miNNW (340°)9.2 mphClear
7:15 PM23.0 °F13.8 °F68 %30.37 in10.0 miNorth (350°)9.2 mphClear
7:35 PM22.1 °F13.1 °F68 %30.38 in10.0 miNNW (340°)9.2 mph16.1 mphClear
7:55 PM21.4 °F12.0 °F67 %30.39 in10.0 miNorth (350°)9.2 mph16.1 mphClear
8:15 PM20.8 °F9.5 °F62 %30.40 in10.0 miNorth (350°)10.4 mph18.4 mphClear
8:35 PM19.8 °F9.3 °F64 %30.41 in10.0 miNorth (360°)10.4 mphClear
8:55 PM18.7 °F6.8 °F60 %30.41 in10.0 miNorth (360°)10.4 mphClear
9:15 PM17.6 °F7.5 °F65 %30.41 in10.0 miNorth (10°)11.5 mph16.1 mphClear
9:35 PM16.7 °F7.2 °F66 %30.43 in10.0 miNorth (10°)10.4 mph17.3 mphClear
9:55 PM16.0 °F5.5 °F63 %30.43 in10.0 miNorth (10°)12.7 mph17.3 mphClear
10:15 PM15.4 °F5.9 °F66 %30.45 in10.0 miNorth (360°)9.2 mphClear
10:35 PM14.7 °F4.6 °F64 %30.46 in10.0 miNorth (10°)12.7 mph16.1 mphClear
10:55 PM14.0 °F3.2 °F62 %30.47 in10.0 miNorth (10°)11.5 mphClear
11:15 PM13.1 °F3.2 °F65 %30.48 in10.0 miNorth (10°)9.2 mphClear
11:35 PM12.2 °F2.8 °F66 %30.49 in10.0 miNNE (20°)10.4 mphClear
11:55 PM11.5 °F2.7 °F68 %30.48 in10.0 miNNE (20°)12.7 mphClear
Hourly data recorded from KPMV, located miles away from Pacific Junction, Iowa







STORIES FROM OUR PARTNERS